Weather History for Marysville, OH

Change the Weather History Date:

Tuesday, January 8, 2013

  Actual Average (KDLZ) Record (KDLZ)
Temperature  
Mean Temperature 24 °F -  
Max Temperature 38 °F 31 °F 64 °F (1937)
Min Temperature 11 °F 14 °F -14 °F (1968)
Degree Days  
Heating Degree Days 40    
Moisture  
Dew Point 22 °F    
Average Humidity 81    
Maximum Humidity 93    
Minimum Humidity 65    
Precipitation  
Precipitation 0.00 in - - ()
Sea Level Pressure  
Sea Level Pressure 30.26 in    
Wind  
Wind Speed 5 mph (SSW)    
Max Wind Speed 10 mph    
Max Gust Speed -    
Visibility 7 miles    
Events      
Averages and records for this station are not official NWS values.
T = Trace of Precipitation, MM = Missing Value Source: NWS Daily Summary

Daily Weather History Graph

Daily Weather History Graph

Search for Another Location

Airport:

Trip Planner

Search our weather history database for the weather conditions in past years. The results will help you decide how hot, cold, wet, or windy it might be!

Date:

Astronomy

Jan. 08, 2013 Rise Set
Actual Time 7:55 AM EST 5:24 PM EST
Civil Twilight 7:25 AM EST 5:55 PM EST
Nautical Twilight 6:51 AM EST 6:29 PM EST
Astronomical Twilight 6:19 AM EST 7:01 PM EST
Moon 4:27 AM EST (1/8) 2:26 PM EST (1/8)
Length of Visible Light 10h 29m
Length of Day
9h 29m
Waning Crescent, 14% of the Moon is Illuminated
Jan 8
Waning Crescent
Jan 11
New
Jan 18
First Quarter
Jan 26
Full
Feb 3
Last Quarter

Hourly Weather History & Observations

Time (EST) Temp. Windchill Dew Point Humidity Pressure Visibility Wind Dir Wind Speed Gust Speed Precip Events Conditions
12:14 AM 22.8 °F 13.6 °F 20.3 °F 90% 30.22 in 7.0 mi South 8.1 mph - N/A   Clear
12:35 AM 21.0 °F 12.4 °F 17.8 °F 87% 30.23 in 5.0 mi SW 6.9 mph - N/A   Clear
12:54 AM 20.7 °F 11.9 °F 18.3 °F 91% 30.24 in 5.0 mi SW 6.9 mph - N/A   Clear
1:34 AM 23.0 °F 14.7 °F 20.5 °F 90% 30.22 in 5.0 mi South 6.9 mph - N/A   Clear
1:54 AM 21.7 °F 14.3 °F 18.5 °F 87% 30.21 in 5.0 mi South 5.8 mph - N/A   Clear
2:14 AM 20.3 °F 15.4 °F 18.3 °F 92% 30.22 in 4.0 mi SSW 3.5 mph - N/A   Clear
2:34 AM 13.3 °F 7.3 °F 9.9 °F 86% 30.22 in 2.5 mi SSW 3.5 mph - N/A   Clear
2:54 AM 11.5 °F 5.3 °F 9.0 °F 90% 30.23 in 2.5 mi SW 3.5 mph - N/A   Clear
3:14 AM 14.0 °F 6.5 °F 12.0 °F 92% 30.24 in 1.5 mi WSW 4.6 mph - N/A   Unknown
3:35 AM 14.5 °F 8.8 °F 12.6 °F 92% 30.24 in 1.5 mi South 3.5 mph - N/A   Unknown
3:54 AM 11.3 °F - 8.6 °F 89% 30.25 in 3.0 mi Calm Calm - N/A   Clear
4:14 AM 14.4 °F 6.9 °F 12.0 °F 90% 30.24 in 2.5 mi South 4.6 mph - N/A   Clear
4:35 AM 14.2 °F 8.4 °F 11.5 °F 89% 30.24 in 3.0 mi South 3.5 mph - N/A   Clear
4:54 AM 17.4 °F - 15.6 °F 93% 30.24 in 2.5 mi Calm Calm - N/A   Clear
5:14 AM 14.4 °F - 11.5 °F 88% 30.24 in 3.0 mi Calm Calm - N/A   Clear
5:34 AM 14.7 °F - 12.6 °F 91% 30.24 in 2.5 mi Calm Calm - N/A   Clear
5:54 AM 16.9 °F 9.8 °F 14.9 °F 92% 30.24 in 3.0 mi South 4.6 mph - N/A   Clear
6:14 AM 18.0 °F 9.8 °F 16.0 °F 92% 30.24 in 4.0 mi South 5.8 mph - N/A   Clear
6:34 AM 20.1 °F 10.3 °F 18.3 °F 93% 30.25 in 5.0 mi SSW 8.1 mph - N/A   Clear
6:54 AM 21.6 °F 13.0 °F 19.4 °F 91% 30.26 in 5.0 mi SSW 6.9 mph - N/A   Clear
7:14 AM 20.7 °F 14.2 °F 18.7 °F 92% 30.26 in 5.0 mi SSW 4.6 mph - N/A   Clear
7:34 AM 20.8 °F 16.0 °F 18.9 °F 92% 30.27 in 7.0 mi SSW 3.5 mph - N/A   Clear
7:54 AM 20.3 °F - 18.3 °F 92% 30.27 in 4.0 mi Calm Calm - N/A   Clear
8:34 AM 21.7 °F 12.3 °F 19.4 °F 91% 30.28 in 5.0 mi SSW 8.1 mph - N/A   Clear
8:54 AM 19.6 °F - 16.9 °F 89% 30.28 in 4.0 mi Calm Calm - N/A   Clear
9:14 AM 19.2 °F 11.3 °F 16.7 °F 90% 30.29 in 4.0 mi SW 5.8 mph - N/A   Clear
9:34 AM 21.7 °F - 18.9 °F 89% 30.30 in 4.0 mi Calm Calm - N/A   Clear
10:14 AM 24.6 °F 17.7 °F 20.8 °F 86% 30.32 in 5.0 mi SSW 5.8 mph - N/A   Clear
10:34 AM 26.1 °F 21.9 °F 21.0 °F 81% 30.32 in 5.0 mi SSW 3.5 mph - N/A   Clear
10:54 AM 26.8 °F - 21.4 °F 80% 30.32 in 5.0 mi Calm Calm - N/A   Clear
11:14 AM 29.7 °F 23.7 °F 22.5 °F 75% 30.30 in 7.0 mi South 5.8 mph - N/A   Clear
11:34 AM 31.1 °F 26.4 °F 23.4 °F 73% 30.30 in 7.0 mi SSW 4.6 mph - N/A   Clear
11:54 AM 32.0 °F 27.5 °F 24.1 °F 73% 30.30 in 7.0 mi South 4.6 mph - N/A   Clear
12:14 PM 32.7 °F 29.6 °F 24.6 °F 72% 30.29 in 7.0 mi SSW 3.5 mph - N/A   Clear
12:34 PM 34.0 °F 28.8 °F 25.3 °F 71% 30.28 in 10.0 mi SW 5.8 mph - N/A   Clear
12:54 PM 34.7 °F 29.6 °F 25.7 °F 70% 30.27 in 10.0 mi South 5.8 mph - N/A   Clear
1:34 PM 36.3 °F 30.1 °F 25.9 °F 66% 30.26 in 10.0 mi South 8.1 mph - N/A   Clear
1:54 PM 37.0 °F 31.0 °F 26.2 °F 65% 30.26 in 10.0 mi SSW 8.1 mph - N/A   Clear
2:14 PM 37.2 °F 31.2 °F 27.1 °F 67% 30.26 in 10.0 mi South 8.1 mph - N/A   Clear
2:54 PM 38.3 °F 33.2 °F 27.5 °F 65% 30.26 in 10.0 mi South 6.9 mph - N/A   Clear
3:14 PM 38.5 °F 32.7 °F 27.7 °F 65% 30.27 in 10.0 mi SSW 8.1 mph - N/A   Clear
3:34 PM 38.3 °F 33.2 °F 28.0 °F 67% 30.27 in 10.0 mi SSW 6.9 mph - N/A   Clear
3:54 PM 38.7 °F 33.6 °F 28.4 °F 67% 30.27 in 10.0 mi South 6.9 mph - N/A   Clear
4:14 PM 38.1 °F 32.3 °F 28.6 °F 69% 30.27 in 10.0 mi South 8.1 mph - N/A   Clear
4:34 PM 37.4 °F 33.8 °F 28.9 °F 71% 30.26 in 10.0 mi South 4.6 mph - N/A   Clear
4:54 PM 37.9 °F 35.5 °F 28.4 °F 69% 30.26 in 10.0 mi South 3.5 mph - N/A   Clear
5:14 PM 36.0 °F 33.3 °F 28.4 °F 74% 30.27 in 10.0 mi South 3.5 mph - N/A   Clear
5:34 PM 34.3 °F - 28.2 °F 78% 30.27 in 10.0 mi Calm Calm - N/A   Clear
5:54 PM 31.8 °F - 26.4 °F 80% 30.26 in 10.0 mi Calm Calm - N/A   Clear
6:14 PM 31.6 °F - 26.8 °F 82% 30.25 in 10.0 mi Calm Calm - N/A   Clear
6:34 PM 32.7 °F - 27.3 °F 81% 30.26 in 10.0 mi Calm Calm - N/A   Clear
6:54 PM 28.2 °F - 23.9 °F 84% 30.26 in 10.0 mi Calm Calm - N/A   Clear
7:14 PM 29.5 °F - 24.1 °F 80% 30.26 in 10.0 mi Calm Calm - N/A   Clear
7:34 PM 30.0 °F - 25.3 °F 83% 30.27 in 10.0 mi Calm Calm - N/A   Clear
7:54 PM 32.7 °F 29.6 °F 28.0 °F 83% 30.26 in 10.0 mi SSE 3.5 mph - N/A   Clear
8:34 PM 32.7 °F 28.3 °F 27.7 °F 82% 30.25 in 10.0 mi South 4.6 mph - N/A   Clear
8:54 PM 32.9 °F 26.7 °F 27.7 °F 81% 30.25 in 10.0 mi South 6.9 mph - N/A   Clear
9:14 PM 37.4 °F 32.1 °F 29.3 °F 73% 30.24 in 10.0 mi South 6.9 mph - N/A   Clear
9:34 PM 35.8 °F 30.9 °F 28.2 °F 74% 30.23 in 10.0 mi South 5.8 mph - N/A   Clear
9:54 PM 36.3 °F 31.6 °F 28.4 °F 73% 30.23 in 10.0 mi South 5.8 mph - N/A   Clear
10:14 PM 35.6 °F 30.7 °F 28.0 °F 74% 30.23 in 10.0 mi South 5.8 mph - N/A   Clear
10:34 PM 32.7 °F 26.4 °F 26.6 °F 78% 30.23 in 10.0 mi SSW 6.9 mph - N/A   Clear
10:54 PM 33.8 °F 27.0 °F 27.0 °F 76% 30.23 in 10.0 mi South 8.1 mph - N/A   Clear
11:14 PM 32.5 °F 25.5 °F 25.9 °F 76% 30.23 in 10.0 mi SSW 8.1 mph - N/A   Clear
11:34 PM 32.2 °F 25.0 °F 25.9 °F 78% 30.23 in 10.0 mi SSW 8.1 mph - N/A   Clear
11:54 PM 33.3 °F 25.1 °F 26.8 °F 77% 30.23 in 10.0 mi SSW 10.4 mph - N/A   Clear